KT5AL Weather Reports


Display with metric or nautical units.
time (UTC)temp
F
wind
direction
speed
MPH
gust
MPH
rain 1hr
in
rain 24hr
in
rain mn
in
humidity
%
barometer
mb
20260902030002 87 135 3.0 5.0 0.00 0.00 0.00 51 1012.1
20260902025505 87 157 4.0 6.0 0.00 0.00 0.00 51 1011.7
20260902022005 88 157 5.0 6.0 0.00 0.00 0.00 48 1011.4
20260902021507 88 157 5.0 7.0 0.00 0.00 0.00 48 1011.0
20260902021005 88 135 5.0 7.0 0.00 0.00 0.00 47 1011.0
20260902020005 89 157 4.0 7.0 0.00 0.00 0.00 46 1010.7
20260902013006 90 135 4.0 7.0 0.00 0.00 0.00 44 1010.4
20260902012504 91 157 5.0 7.0 0.00 0.00 0.00 44 1010.0
20260902012008 91 135 4.0 7.0 0.00 0.00 0.00 43 1010.0
20260902005508 93 157 6.0 10.0 0.00 0.00 0.00 41 1009.4
20260902005005 93 180 7.0 10.0 0.00 0.00 0.00 40 1009.4
20260902004004 94 135 5.0 9.0 0.00 0.00 0.00 38 1009.0
20260902003507 94 135 7.0 10.0 0.00 0.00 0.00 38 1009.0
20260902003005 94 135 8.0 10.0 0.00 0.00 0.00 38 1009.0
20260902000007 95 90 10.0 12.0 0.00 0.00 0.00 37 1009.0
20260901235505 96 112 9.0 14.0 0.00 0.00 0.00 36 1009.0
20260901234505 96 90 9.0 11.0 0.00 0.00 0.00 36 1009.0
20260901233004 96 90 8.0 13.0 0.00 0.00 0.00 36 1008.7
20260901232507 96 157 9.0 12.0 0.00 0.00 0.00 36 1008.7
20260901231507 96 67 11.0 14.0 0.00 0.00 0.00 36 1008.7
20260901231031 97 90 9.0 13.0 0.00 0.00 0.00 35 1008.7
20260901230502 97 112 10.0 14.0 0.00 0.00 0.00 34 1008.7
20260901230006 97 90 9.0 12.0 0.00 0.00 0.00 34 1008.7
20260901225504 97 135 12.0 16.0 0.00 0.00 0.00 35 1008.7
20260901224505 98 157 6.0 12.0 0.00 0.00 0.00 34 1008.3
20260901221506 97 90 7.0 11.0 0.00 0.00 0.00 34 1008.7
20260901221004 96 112 12.0 16.0 0.00 0.00 0.00 35 1008.7
20260901220507 96 112 6.0 9.0 0.00 0.00 0.00 36 1008.3
20260901215006 98 112 10.0 13.0 0.00 0.00 0.00 34 1008.7
20260901214007 98 157 9.0 12.0 0.00 0.00 0.00 34 1009.0
20260901213503 97 157 7.0 10.0 0.00 0.00 0.00 35 1009.0
20260901211507 97 112 11.0 13.0 0.00 0.00 0.00 36 1009.0
20260901210005 98 67 7.0 8.0 0.00 0.00 0.00 34 1008.7
20260901205508 98 180 14.0 21.0 0.00 0.00 0.00 35 1008.7
20260901203508 97 157 9.0 11.0 0.00 0.00 0.00 36 1009.4
20260901201006 96 135 5.0 9.0 0.00 0.00 0.00 39 1010.4
20260901195504 94 112 9.0 12.0 0.00 0.00 0.00 39 1010.4
20260901195002 96 112 5.0 7.0 0.00 0.00 0.00 39 1010.4
20260901194506 96 157 7.0 9.0 0.00 0.00 0.00 39 1010.7
20260901190503 94 67 9.0 13.0 0.00 0.00 0.00 41 1011.0
20260901185502 94 67 10.0 13.0 0.00 0.00 0.00 39 1011.0
20260901184507 95 157 9.0 13.0 0.00 0.00 0.00 39 1011.7
20260901184005 95 112 9.0 13.0 0.00 0.00 0.00 39 1011.7
20260901183006 93 67 6.0 9.0 0.00 0.00 0.00 42 1011.7
20260901182004 95 202 6.0 8.0 0.00 0.00 0.00 40 1011.7
20260901181507 95 112 8.0 10.0 0.00 0.00 0.00 38 1011.7
20260901173504 94 157 10.0 11.0 0.00 0.00 0.00 42 1012.1
20260901173008 93 67 9.0 10.0 0.00 0.00 0.00 44 1012.1
20260901172504 93 67 10.0 12.0 0.00 0.00 0.00 44 1012.4
20260901172007 95 157 7.0 11.0 0.00 0.00 0.00 42 1012.4
20260901171505 95 135 6.0 8.0 0.00 0.00 0.00 42 1012.4
20260901171007 95 202 7.0 9.0 0.00 0.00 0.00 42 1012.4
20260901164506 94 135 5.0 6.0 0.00 0.00 0.00 44 1012.7
20260901163009 93 157 9.0 12.0 0.00 0.00 0.00 45 1013.1
20260901162506 93 180 5.0 9.0 0.00 0.00 0.00 47 1013.1
20260901162008 92 180 9.0 11.0 0.00 0.00 0.00 47 1013.1
20260901161002 92 180 11.0 14.0 0.00 0.00 0.00 47 1013.1
20260901160008 91 180 12.0 13.0 0.00 0.00 0.00 47 1013.4
20260901155505 91 202 8.0 10.0 0.00 0.00 0.00 50 1013.4
20260901152506 90 157 6.0 9.0 0.00 0.00 0.00 52 1013.8
20260901152011 90 157 6.0 8.0 0.00 0.00 0.00 52 1013.8
20260901151506 90 180 6.0 10.0 0.00 0.00 0.00 52 1013.8
20260901145506 88 180 8.0 9.0 0.00 0.00 0.00 55 1014.1
20260901144507 88 180 7.0 9.0 0.00 0.00 0.00 56 1014.1
20260901144005 88 157 7.0 9.0 0.00 0.00 0.00 56 1014.1
20260901143006 88 157 4.0 6.0 0.00 0.00 0.00 57 1014.4
20260901142504 87 157 7.0 8.0 0.00 0.00 0.00 57 1014.4
20260901141004 86 180 4.0 5.0 0.00 0.00 0.00 61 1014.8
20260901140507 85 112 5.0 8.0 0.00 0.00 0.00 62 1014.8
20260901140005 86 135 8.0 9.0 0.00 0.00 0.00 61 1014.8
20260901135507 85 180 4.0 5.0 0.00 0.00 0.00 62 1014.8
20260901134502 85 157 5.0 6.0 0.00 0.00 0.00 63 1015.1
20260901133510 83 157 4.0 6.0 0.00 0.00 0.00 67 1015.1
20260901133004 83 157 4.0 4.0 0.00 0.00 0.00 67 1015.1
20260901132506 82 157 3.0 4.0 0.00 0.00 0.00 70 1015.8
20260901132008 81 157 4.0 5.0 0.00 0.00 0.00 71 1015.8
20260901131503 80 157 3.0 5.0 0.00 0.00 0.00 72 1015.8
20260901130003 79 135 4.0 5.0 0.00 0.00 0.00 73 1016.5
20260901125505 79 157 3.0 3.0 0.00 0.00 0.00 74 1016.5
20260901124503 78 157 4.0 6.0 0.00 0.00 0.00 74 1016.5
20260901124004 78 157 2.0 3.0 0.00 0.00 0.00 74 1016.5
20260901123507 78 157 4.0 6.0 0.00 0.00 0.00 75 1016.5
20260901122504 77 135 2.0 2.0 0.00 0.00 0.00 75 1016.5
20260901121508 77 135 3.0 4.0 0.00 0.00 0.00 74 1016.5
20260901121031 77 135 4.0 5.0 0.00 0.00 0.00 74 1016.5
20260901115502 78 135 2.0 3.0 0.00 0.00 0.00 73 1016.1
20260901114007 78 225 2.0 3.0 0.00 0.00 0.00 72 1016.1
20260901113005 78 225 5.0 5.0 0.00 0.00 0.00 71 1015.8
20260901112507 78 247 3.0 4.0 0.00 0.00 0.00 71 1015.8
20260901110508 79 225 7.0 8.0 0.00 0.00 0.00 69 1015.8
20260901110004 79 225 5.0 5.0 0.00 0.00 0.00 69 1015.8
20260901105506 78 202 4.0 5.0 0.00 0.00 0.00 69 1015.8
20260901105008 78 202 1.0 3.0 0.00 0.00 0.00 67 1015.8
20260901101004 79 157 2.0 3.0 0.00 0.00 0.00 65 1015.4
20260901095504 80 157 3.0 3.0 0.00 0.00 0.00 65 1015.4
20260901094508 80 157 4.0 5.0 0.00 0.00 0.00 64 1015.4
20260901093505 80 157 4.0 5.0 0.00 0.00 0.00 64 1015.8
20260901093007 80 157 3.0 4.0 0.00 0.00 0.00 63 1015.8
20260901091003 80 135 4.0 5.0 0.00 0.00 0.00 62 1015.4
20260901090006 80 157 5.0 6.0 0.00 0.00 0.00 63 1015.4
20260901085005 79 157 4.0 6.0 0.00 0.00 0.00 62 1015.4
20260901083006 80 157 4.0 6.0 0.00 0.00 0.00 62 1015.4
20260901082502 80 157 5.0 6.0 0.00 0.00 0.00 62 1015.1
20260901082004 80 135 5.0 6.0 0.00 0.00 0.00 62 1015.1
20260901081002 80 112 6.0 7.0 0.00 0.00 0.00 61 1015.1
20260901075507 80 135 4.0 5.0 0.00 0.00 0.00 60 1015.1
20260901075003 80 157 4.0 6.0 0.00 0.00 0.00 59 1015.1
20260901074505 80 157 4.0 5.0 0.00 0.00 0.00 59 1014.8
20260901074007 80 135 4.0 5.0 0.00 0.00 0.00 57 1014.8
20260901071504 81 135 5.0 8.0 0.00 0.00 0.00 57 1014.8
20260901070502 81 112 3.0 4.0 0.00 0.00 0.00 55 1015.1
20260901065029 81 67 4.0 5.0 0.00 0.00 0.00 52 1014.8
20260901064502 81 45 4.0 4.0 0.00 0.00 0.00 52 1014.8
20260901062505 81 45 4.0 5.0 0.00 0.00 0.00 52 1014.8
20260901061005 81 45 4.0 5.0 0.00 0.00 0.00 52 1015.1
20260901060507 80 360 4.0 4.0 0.00 0.00 0.00 53 1014.8
20260901054537 81 247 0.0 0.0 0.00 0.00 0.00 51 1014.4
20260901050008 82 157 1.0 2.0 0.00 0.00 0.00 47 1013.8
20260901042504 82 157 2.0 4.0 0.00 0.00 0.00 47 1013.4
20260901041005 83 157 0.0 0.0 0.00 0.00 0.00 46 1013.8
20260901040507 83 157 1.0 2.0 0.00 0.00 0.00 45 1013.4
20260901034005 84 157 3.0 4.0 0.00 0.00 0.00 44 1013.4
20260901033003 85 157 3.0 4.0 0.00 0.00 0.00 43 1013.1
20260901032006 85 157 3.0 4.0 0.00 0.00 0.00 44 1013.1
20260901030507 85 180 3.0 4.0 0.00 0.00 0.00 44 1013.1